Погода в Ташкенте

Погода в Ташкенте : погода сейчас, прогноз погоды и архив. Всё, что Вы хотите узнать о погоде в Ташкенте!

Хотите узнать прогноз погоды в Ташкенте? Тогда Вам сюда: Погода в Ташкенте

Поиск расширенной информации на нашем сайте:

Другие новости

Новости СМИ2

Главная страница сайта

Новости сайта

03.07.2017

Напоминаем, что на нашем специализированном сайте Метеоцентр.Азия вы можете получить высокодетализированные автоматические прогнозы погоды по пунктам России, СНГ и мира в авиационном формате (включающие направление и скорость ветра, видимость, явления погоды, количество и форму облачности, нижнюю и верхнюю границу облачности).

Рекомендуем: Трансфер в израиле israel4u.ru.

Погода в Ташкенте - сегодня

Время (UTC), дата Ветер
(°,м/с) 
Видим.   Явления Облачность Т
(°С)
Тd
(°С)
f(%) Тe
(°С)
Pmin
(гПа)
dP
(гПа)
Po
(мм)
O2
(г/м3)
Тmin Tmax R s Состояние
почвы
18 19.08.17 060 (СВ) 10 км    9/9 1000 м 
[Sc]
+23.3 +11.7 48 +28  1009.9  716  264    +32.6       
21 19.08.17 100 (В) 10 км    8/0 средняя, верхняя 
[Ac As|Ci]
+21.1 +10.5 51 +24  1010.2  -0.2  716  266           
00 20.08.17 080 (В) 10 км    9/4 1000 м средняя, верхняя 
[Sc|Ac lent|Ci]
+19.3 +10.4 56 +24  1010.5  716  268           
03 20.08.17 120 (ЮВ) 10 км    9/4 1000 м средняя, верхняя 
[Cu hum|Ac cast|Ci sp]
+22.9 +10.6 46 +26  1010.6  0.8  717  265           
06 20.08.17 210 (ЮЗ) 10 км    8/1 1000 м средняя, верхняя 
[Cu hum|Ac trans|Ci]
+28.9 +7.4 26 +29  1010.4  0.7  717  260  +19.1         
09 20.08.17 170 (Ю) 10 км    4/0 средняя, верхняя 
[Ac trans|Ci]
+30.7 +6.8 22 +31  1009.8  -0.2  717  259           
12 20.08.17 250 (З) 10 км    3/3 1000 м 
[Cu hum]
+31.6 +7.6 22 +32    -0.3             
15 20.08.17 180 (Ю) 10 км    ясно 
+26.8 +11.4 38 +31  1010  -0.1  717  261    +33       
18 20.08.17 110 (В) 10 км    ясно 
+21.8 +13.3 58 +29  1011.2  0.3  717  265    +33       
21 20.08.17 080 (В) 10 км    ясно 
+18.7 +8.2 50 +20  1011.9  717  269           
00 21.08.17 070 (В) 20000 м    ясно 
+17.2 +10 63 +21  1011.2  -0.9  716  270           
03 21.08.17 тихо ()   10 км    ясно 
+23.4 +9.4 41 +25  1010.6  0.6  717  264  +16.5        сухая 
06 21.08.17 240 (ЮЗ) 10 км    ясно 
+28.8 +7.8 27 +29  1009.8  0.1  717  260  +16.5         
09 21.08.17 270 (З) 10 км    1/1 600 м 
[Cu hum]
+31.9 +5.6 19 +32  1008.3  -0.8  716  258           
12 21.08.17 290 (З) 10 км    ясно 
+32.5 +4.5 17 +33  1006.9  -1.3  715  257           
15 21.08.17 230 (ЮЗ) 10 км    ясно 
+27.3 +8.9 31 +28  1007.1  -0.6  715  260    +33.2       
18 21.08.17 120 (ЮВ) 10 км    ясно 
+21.4 +11.8 54 +26  1007.8  -0.4  715  265    +33.2       
21 21.08.17 120 (ЮВ) 10 км    ясно 
+18.6 +9 54 +21  1007.7  -0.6  714  268           
00 22.08.17 130 (ЮВ) 10 км    1/0 верхняя 
[Ci fib]
+17.6 +8.9 57 +20  1007.9  714  269           
03 22.08.17 130 (ЮВ) 10 км    ясно 
+23.8 +9.3 40 +25  1007.2  0.4  714  263  +17        сухая 
06 22.08.17 260 (З) 10 км    1/0 средняя 
[Ac lent]
+28.6 +2.3 18 +29  1006.8  0.5  715  260  +23.8         
09 22.08.17 тихо ()   10 км    6/0 верхняя 
[Ci fib]
+32.8 +5.1 18 +33  1005.2  -0.8  714  256           
12 22.08.17 300 (СЗ) 10 км    9/0 средняя, верхняя 
[Ac lent|Ci fib]
+32 +8.1 23 +32  1004  -1.2  713  256           
15 22.08.17 280 (З) 10 км    6/0 средняя, верхняя 
[Ac lent|Ci fib]
+27.5 +8.2 30 +28  1005.1  0.3  714  260    +33.8       
18 22.08.17 110 (В) 10 км    4/0 верхняя 
[Ci fib]
+23.8 +10.9 44 +27  1005.8  714  262    +33.8       
Время (UTC), дата Ветер
(°,м/с) 
Видим.   Явления Облачность Т
(°С)
Тd
(°С)
f(%) Тe
(°С)
Pmin
(гПа)
dP
(гПа)
Po
(мм)
O2
(г/м3)
Тmin Tmax R s Состояние
почвы

Для получения пояснительной информации подведите курсор к названию столбца.

ПОГОДА в Ташкенте - архив

Всё, что Вы хотите узнать о погоде в Ташкенте - удобно и подробно!

Выберите нужную дату (начиная с 1 января 2015* года) и нажмите кнопку "Найти".
Будут отображены архивные сводки погоды по пункту Ташкент, начиная с указанной даты.


Отображать данные в формате CSV (для использования в таблицах Excel)


Внимание! Наш архив погоды предназначен исключительно для личного некоммерческого использования в познавательных целях. Если Вам необходимы официальные справки о состоянии погоды (для производственных, юридических, коммерческих и т.п. целей), обращайтесь в органы Росгидромета.

*Примечание: данная дата относится к архиву по метеостанциям СССР (Россия, СНГ, Балтия).
Архив по метеостанциям Зарубежной Европы и Азии (кроме Китая) хранится 10 дней, по другим регионам земного шара (Китай, Африка, Америка, Австралия, Океания) - 1 день.

Ташкент - район местоположения метеостанции


Название, широта, долгота, высота метеостанции:
Ташкент (город) 41.3°ш. 69.3°д. 488 м над ур. моря [Узбекистан]

Дополнительная информация

В oтличие oт бoльшинства пoгoдных сайтoв мы публикуем пoдрoбную метеoинфoрмацию в детальнoм прoфессиoнальнoм фoрмате.

Характеристики температуры и влажнoсти вoздуха измеряются на высoте 2 м в тени вдали oт зданий и деревьев.
Скoрoсть ветра измеряется на высoте 10 м (на урoвне рoста челoвека скoрoсть ветра ниже в 1.5-2 раза). Если метеoстанция нахoдится в гoрoде или в лесу, тo скoрoсть ветра занижена на 2-4 м/с пo сравнению с oткрытым местoм. Скoрoсть ветра над акватoриями крупных рек и oзёр, а также на вершинах хoлмoв на 2-5 м/с выше, чем в oбычных услoвиях.
Атмoсфернoе давление в разных тoчках местнoсти мoжет значительнo oтличаться oт давления на метеoстанции, в зависимoсти oт услoвий рельефа (при пoдъёме на 10 м давление пoнижается примернo на 1 мм рт.ст.).